When you browse on this site, cookies collect data to enhance your experience and personalize the content and advertising you see.
Visit our Privacy Policy to learn more. By continuing to use the site, you agree to this use of cookies and data.
  • In Sweden
  • List of Countries
  • For 7 days
  • Water Temperature
  • Weather Map
  • Weather Widgets
  • user-avatar
    Login

    Hourly Weather Thomasville

    Today, 4 June, Thursday

    Time Temperature Precipitation Wind Pressure Humidity
    00:00 +24°C° 0 mm 2 mps 738 mmHg 85%
    01:00 +24°C° 0 mm 3 mps 738 mmHg 89%
    02:00 +23°C° 1.8 mm 2 mps 738 mmHg 91%
    03:00 +23°C° 1.8 mm 2 mps 738 mmHg 93%
    04:00 +21°C° 1.8 mm 2 mps 738 mmHg 95%
    05:00 +21°C° 0.6 mm 2 mps 738 mmHg 94%
    06:00 +23°C° 0.6 mm 1 mps 738 mmHg 93%
    07:00 +24°C° 0 mm 1 mps 739 mmHg 92%
    08:00 +26°C° 0.2 mm 1 mps 739 mmHg 85%
    09:00 +28°C° 0.2 mm 1 mps 739 mmHg 78%
    10:00 +29°C° 0.2 mm 1 mps 739 mmHg 70%
    11:00 +30°C° 0.9 mm 2 mps 739 mmHg 67%
    12:00 +31°C° 0.9 mm 3 mps 738 mmHg 64%
    13:00 +32°C° 0.9 mm 4 mps 738 mmHg 61%
    14:00 +32°C° 0.3 mm 4 mps 738 mmHg 61%
    15:00 +32°C° 0.3 mm 4 mps 738 mmHg 61%
    16:00 +32°C° 0.3 mm 4 mps 738 mmHg 61%
    17:00 +29°C° 0 mm 5 mps 738 mmHg 64%
    18:00 +28°C° 0 mm 5 mps 738 mmHg 68%
    19:00 +26°C° 0 mm 6 mps 738 mmHg 72%
    20:00 +25°C° 0 mm 5 mps 739 mmHg 75%
    21:00 +23°C° 0 mm 5 mps 739 mmHg 79%
    22:00 +22°C° 0 mm 4 mps 740 mmHg 82%
    23:00 +21°C° 0 mm 4 mps 739 mmHg 86%

    Tomorrow, 5 June, Friday

    Time Temperature Precipitation Wind Pressure Humidity
    00:00 +21°C° 0 mm 3 mps 739 mmHg 89%
    01:00 +20°C° 0 mm 3 mps 739 mmHg 92%
    02:00 +20°C° 0 mm 2 mps 739 mmHg 91%
    03:00 +21°C° 0 mm 2 mps 739 mmHg 91%
    04:00 +21°C° 0 mm 2 mps 738 mmHg 90%
    05:00 +21°C° 0 mm 2 mps 739 mmHg 90%
    06:00 +21°C° 0 mm 2 mps 739 mmHg 90%
    07:00 +23°C° 0 mm 2 mps 739 mmHg 90%
    08:00 +24°C° 0 mm 2 mps 739 mmHg 85%
    09:00 +25°C° 0 mm 2 mps 739 mmHg 81%
    10:00 +27°C° 0 mm 3 mps 739 mmHg 76%
    11:00 +27°C° 0 mm 3 mps 739 mmHg 73%
    12:00 +28°C° 0 mm 3 mps 738 mmHg 70%
    13:00 +29°C° 0 mm 3 mps 738 mmHg 68%
    14:00 +29°C° 0.8 mm 3 mps 737 mmHg 70%
    15:00 +29°C° 0.8 mm 3 mps 737 mmHg 73%
    16:00 +29°C° 0.8 mm 3 mps 736 mmHg 76%
    17:00 +28°C° 0.8 mm 3 mps 737 mmHg 79%
    18:00 +27°C° 0.8 mm 3 mps 737 mmHg 82%
    19:00 +25°C° 0.8 mm 2 mps 737 mmHg 86%
    20:00 +25°C° 0.4 mm 2 mps 737 mmHg 87%
    21:00 +24°C° 0.4 mm 2 mps 737 mmHg 89%
    22:00 +24°C° 0.4 mm 2 mps 737 mmHg 90%
    23:00 +23°C° 0.4 mm 2 mps 737 mmHg 92%

    Day after tomorrow, 6 June, Saturday

    Time Temperature Precipitation Wind Pressure Humidity
    00:00 +23°C° 0.4 mm 2 mps 737 mmHg 93%
    01:00 +22°C° 0.4 mm 1 mps 737 mmHg 94%
    02:00 +21°C° 0 mm 2 mps 737 mmHg 94%
    03:00 +21°C° 0 mm 2 mps 737 mmHg 94%
    04:00 +21°C° 0 mm 2 mps 736 mmHg 93%
    05:00 +23°C° 0 mm 2 mps 737 mmHg 92%
    06:00 +23°C° 0 mm 2 mps 737 mmHg 90%
    07:00 +24°C° 0 mm 2 mps 737 mmHg 89%
    08:00 +26°C° 0 mm 2 mps 738 mmHg 80%
    09:00 +28°C° 0 mm 2 mps 738 mmHg 71%
    10:00 +30°C° 0 mm 2 mps 738 mmHg 63%
    11:00 +31°C° 0 mm 2 mps 737 mmHg 59%
    12:00 +32°C° 0 mm 2 mps 737 mmHg 55%
    13:00 +34°C° 0 mm 3 mps 737 mmHg 52%
    14:00 +34°C° 0 mm 3 mps 736 mmHg 52%
    15:00 +34°C° 0 mm 3 mps 736 mmHg 53%
    16:00 +34°C° 0 mm 3 mps 735 mmHg 53%
    17:00 +31°C° 0.4 mm 3 mps 735 mmHg 61%
    18:00 +29°C° 0.4 mm 2 mps 736 mmHg 69%
    19:00 +27°C° 0.4 mm 2 mps 736 mmHg 76%
    20:00 +26°C° 0.6 mm 2 mps 736 mmHg 79%
    21:00 +25°C° 0.6 mm 2 mps 736 mmHg 82%
    22:00 +24°C° 0.6 mm 2 mps 736 mmHg 84%
    23:00 +24°C° 0.1 mm 2 mps 736 mmHg 86%

    7 June, Sunday

    Time Temperature Precipitation Wind Pressure Humidity
    00:00 +23°C° 0.1 mm 1 mps 736 mmHg 87%
    01:00 +23°C° 0.1 mm 1 mps 737 mmHg 88%
    02:00 +23°C° 0 mm 1 mps 737 mmHg 89%
    03:00 +22°C° 0 mm 1 mps 737 mmHg 89%
    04:00 +21°C° 0 mm 1 mps 737 mmHg 90%
    05:00 +21°C° 0 mm 2 mps 737 mmHg 87%
    06:00 +21°C° 0 mm 2 mps 738 mmHg 84%
    07:00 +22°C° 0 mm 3 mps 738 mmHg 81%
    08:00 +24°C° 0 mm 2 mps 739 mmHg 72%
    09:00 +25°C° 0 mm 2 mps 739 mmHg 63%
    10:00 +26°C° 0 mm 2 mps 739 mmHg 54%
    11:00 +28°C° 0 mm 2 mps 739 mmHg 52%
    12:00 +29°C° 0 mm 2 mps 739 mmHg 50%
    13:00 +30°C° 0 mm 1 mps 738 mmHg 48%
    14:00 +30°C° 0 mm 1 mps 738 mmHg 50%
    15:00 +30°C° 0 mm 1 mps 738 mmHg 51%
    16:00 +30°C° 0 mm 1 mps 737 mmHg 53%
    17:00 +28°C° 0 mm 1 mps 737 mmHg 60%
    18:00 +27°C° 0 mm 1 mps 737 mmHg 66%
    19:00 +26°C° 0 mm 1 mps 738 mmHg 72%
    20:00 +25°C° 0 mm 1 mps 738 mmHg 74%
    21:00 +24°C° 0 mm 1 mps 739 mmHg 75%
    22:00 +23°C° 0 mm 1 mps 739 mmHg 77%
    23:00 +22°C° 0 mm 1 mps 739 mmHg 78%

    8 June, Monday

    Time Temperature Precipitation Wind Pressure Humidity
    00:00 +22°C° 0 mm 1 mps 739 mmHg 78%
    01:00 +21°C° 0 mm 1 mps 739 mmHg 79%
    02:00 +20°C° 0 mm 2 mps 739 mmHg 79%
    03:00 +19°C° 0 mm 2 mps 740 mmHg 78%
    04:00 +19°C° 0 mm 2 mps 740 mmHg 77%
    05:00 +19°C° 0 mm 2 mps 740 mmHg 77%
    06:00 +19°C° 0 mm 3 mps 741 mmHg 77%
    07:00 +19°C° 0 mm 3 mps 741 mmHg 77%
    08:00 +21°C° 0 mm 3 mps 741 mmHg 75%
    09:00 +24°C° 0 mm 3 mps 741 mmHg 72%
    10:00 +26°C° 0 mm 3 mps 742 mmHg 70%
    11:00 +27°C° 0 mm 3 mps 742 mmHg 66%
    12:00 +28°C° 0 mm 3 mps 742 mmHg 62%
    13:00 +29°C° 0 mm 3 mps 741 mmHg 58%
    14:00 +29°C° 0 mm 2 mps 741 mmHg 59%
    15:00 +29°C° 0 mm 2 mps 741 mmHg 59%
    16:00 +29°C° 0 mm 2 mps 740 mmHg 60%
    17:00 +28°C° 0 mm 2 mps 741 mmHg 65%
    18:00 +27°C° 0 mm 2 mps 741 mmHg 70%
    19:00 +26°C° 0 mm 2 mps 741 mmHg 74%
    20:00 +25°C° 0 mm 2 mps 741 mmHg 75%
    21:00 +24°C° 0 mm 2 mps 741 mmHg 76%
    22:00 +24°C° 0 mm 2 mps 742 mmHg 76%
    23:00 +23°C° 0 mm 2 mps 742 mmHg 80%

    9 June, Tuesday

    Time Temperature Precipitation Wind Pressure Humidity
    00:00 +21°C° 0 mm 2 mps 742 mmHg 84%
    01:00 +21°C° 0 mm 2 mps 742 mmHg 88%
    02:00 +21°C° 0 mm 1 mps 742 mmHg 90%
    03:00 +20°C° 0 mm 1 mps 742 mmHg 91%
    04:00 +20°C° 0 mm 1 mps 742 mmHg 93%
    05:00 +20°C° 0 mm 1 mps 742 mmHg 89%
    06:00 +19°C° 0 mm 0 mps 742 mmHg 86%
    07:00 +20°C° 0 mm 0 mps 743 mmHg 83%
    08:00 +24°C° 0 mm 1 mps 743 mmHg 77%
    09:00 +25°C° 0 mm 1 mps 743 mmHg 70%
    10:00 +27°C° 0 mm 1 mps 743 mmHg 64%
    11:00 +28°C° 0 mm 2 mps 743 mmHg 62%
    12:00 +28°C° 0 mm 2 mps 742 mmHg 61%
    13:00 +29°C° 0 mm 2 mps 742 mmHg 60%
    14:00 +29°C° 0 mm 2 mps 742 mmHg 59%
    15:00 +29°C° 0 mm 2 mps 741 mmHg 58%
    16:00 +29°C° 0 mm 2 mps 741 mmHg 57%
    17:00 +28°C° 0 mm 2 mps 741 mmHg 63%
    18:00 +27°C° 0 mm 3 mps 741 mmHg 69%
    19:00 +25°C° 0 mm 3 mps 741 mmHg 75%
    20:00 +24°C° 0 mm 3 mps 741 mmHg 74%
    21:00 +22°C° 0 mm 3 mps 742 mmHg 73%
    22:00 +21°C° 0 mm 3 mps 743 mmHg 72%
    23:00 +21°C° 0 mm 3 mps 742 mmHg 74%
    Show more